CZ-6A DEB

Satellite information

Favourite Embed

Satellite Type and Status

DEBRISIN ORBIT

Key statistics

Satellite CZ-6A DEB at a glance.

Uptime

1085

Days in orbit

Revolutions

≈ 14.7

Per day

Orbit

SSO

Sun Synchronous Orbit

Inclination

98.6

Latest

Satellite identification and parameters

Extended collection of information and parameters for CZ-6A DEB.

Object identification

Identified? True

Debris? True

Object name: CZ-6A DEB

International designator: 2022-151VV

Object number (NORAD): 55204

Object ID (CCSDS): 55204

Country: PEOPLES REPUBLIC OF CHINA (PRC)

Current information (Y/N): Y

RCS size: SMALL

Orbital parameters

Period: 97.65 minutes

Inclination: 98.6317 deg

SMA: 7024.378 km

Apoapsis: 697.943 km

Periapsis: 594.544 km

RAAN: 356.3663 deg

Eccentricy: 0.00735999

Argument of periapsis: 260.8291 deg

Mean anomaly: 98.4585 deg

Mean motion: 14.74656643 rev/day

Mean motion (dot): 0.00033019 rev/day2

B* drag term: 0.0047243496 1/REarth

Two-line elements (TLE)

Creation date: Oct. 30, 2025, 10:34 a.m.

Reference frame: TEME

Reference center: EARTH

Epoch: Oct. 30, 2025, 2:18 a.m. UTC

TLE line 0: 0 CZ-6A DEB

TLE line 1: 1 55204U 22151VV 25303.09632414 .00033019 00000-0 47243-2 0 9997

TLE line 2: 2 55204 98.6317 356.3663 0073600 260.8291 98.4585 14.74656643151785

Live tracking on map

Real-time ground track for satellite CZ-6A DEB.

In-orbit conjunctions

A list of the most updated potential collisions computed for object CZ-6A DEB.

Target Orbit TCA Probability of collision Miss distance Type
TITAN 3C TRANSTAGE DEB LEO 2025-09-11 06:25:51 0.0001523135 74.0 (m) DEBRIS
FR 1 LEO 2024-12-19 13:46:13 0.0001458035 849.0 (m) PAYLOAD

Associated space launch

Chinese satellite reported for atmospheric/ocean/environmental/spatial parameter research purposes, details TBD.

CZ-6A DEB was lifted into orbit during the mission ‘Long March 6A | Yunhai 3’, on board a Long March 6A space rocket.

The launch took place on Nov. 11, 2022, 10:52 p.m. from Launch Complex 9A.

For more information about the launch, click the button.

Launch to space Long March 6A | Yunhai 3
Long March 6A | Yunhai 3

Agency: N/A

Status: Launch Successful

Launch date: Nov. 11, 2022, 10:52 p.m. UTC

Rocket: Long March 6A

Launch pad: Launch Complex 9A

Location: Taiyuan Satellite Launch Center, People's Republic of China

...

Latest news about this satellite

There are no fresh news available about this satellite. Check back as we update our databases every day.


Newsletter sign-up

Weekly statistics, charts and insights to help you stay on top of the space industry.